Location: Gloden
(48.4833°N, 15.3167°E)
Time: 12:06:49
(UTC+00:00)

Cosmos 1975 - Pass Details

Date: 15 December 2019
Orbit: 543 x 561 km, 82.5° (Epoch: 23 January)

Event Time Altitude Azimuth Distance (km) Brightness Sun altitude
Rises 05:45:31 0° 176° (S) 2,702 6.8 -9.1°
Reaches altitude 10° 05:47:42 10° 171° (S) 1,812 6.0 -8.8°
Maximum altitude 05:51:35 53° 95° (E) 680 3.7 -8.2°
Drops below altitude 10° 05:55:29 10° 19° (NNE) 1,822 5.4 -7.7°
Sets 05:57:41 0° 14° (NNE) 2,719 6.2 -7.3°
